{"data":{"norad_id":66322,"epoch":"2026-05-25T00:58:03.743904Z","epoch_age_seconds":71311,"freshness":"FRESH","line1":"1 66322U 25253D   26145.04032111  .00014790  00000+0  54571-3 0  9991","line2":"2 66322  42.9982 141.1222 0001013 286.7793  73.2948 15.27591732 31925","mean_motion":15.27591732,"eccentricity":0.0001013,"inclination_deg":42.9982,"raan_deg":141.1222,"arg_perigee_deg":286.7793,"mean_anomaly_deg":73.2948,"bstar":0.00054571,"rev_number":3192,"period_min":94.266024739128,"perigee_km":482.31893184302,"apogee_km":483.70900102882,"semimajor_km":6861.1509664359,"source":"CELESTRAK","updated_at":"2026-05-25T13:38:21.167051Z"}}